Weather History for KMTW - November, 2012

Change the Weather History Date:

Saturday, November 3, 2012

  Actual Average (KGRB) Record (KGRB)
Temperature  
Mean Temperature 34 °F 40 °F  
Max Temperature 39 °F 49 °F 72 °F (1938)
Min Temperature 28 °F 32 °F 7 °F (1951)
Degree Days  
Heating Degree Days 32 25  
Month to date heating degree days 73  
Since 1 July heating degree days 899  
Cooling Degree Days 0 0  
Month to date cooling degree days 0  
Year to date cooling degree days 398  
Moisture  
Dew Point 26 °F    
Average Humidity 72    
Maximum Humidity 86    
Minimum Humidity 60    
Precipitation  
Precipitation 0.00 in 0.07 in 1.03 in (1934)
Month to date precipitation 0.22  
Year to date precipitation 26.10  
Snow  
Snow 0.00 in 0.00 in 3.40 in (1951)
Month to date snowfall 0.1  
Since 1 July snowfall 0.3  
Since 1 September snowfall 0.3  
Snow Depth -    
Sea Level Pressure  
Sea Level Pressure 30.23 in    
Wind  
Wind Speed 7 mph (NNW)    
Max Wind Speed 10 mph    
Max Gust Speed -    
Visibility 10 miles    
Events      
T = Trace of Precipitation, MM = Missing Value Source: NWS Daily Summary

Daily Weather History Graph

Daily Weather History Graph

Search for Another Location

Airport or City:

Trip Planner

Search our weather history database for the weather conditions in past years. The results will help you decide how hot, cold, wet, or windy it might be!

Date:

Astronomy

Nov. 03, 2012 Rise Set
Actual Time 7:30 AM CDT 5:37 PM CDT
Civil Twilight 7:00 AM CDT 6:07 PM CDT
Nautical Twilight 6:26 AM CDT 6:41 PM CDT
Astronomical Twilight 5:52 AM CDT 7:15 PM CDT
Moon 9:14 PM CDT (11/3) 11:38 AM CDT (11/3)
Length of Visible Light 11h 07m
Length of Day
10h 06m
Waning Gibbous, 80% of the Moon is Illuminated
Nov 3
Waning Gibbous
Nov 6
Last Quarter
Nov 13
New
Nov 20
First Quarter
Nov 28
Full

Hourly Weather History & Observations

Time (CDT) Temp. Windchill Dew Point Humidity Pressure Visibility Wind Dir Wind Speed Gust Speed Precip Events Conditions
12:15 AM 30.2 °F 22.6 °F 23.0 °F 75% 30.19 in 10.0 mi NNW 8.1 mph - N/A   Clear
12:35 AM 30.2 °F 23.4 °F 24.8 °F 80% 30.20 in 10.0 mi NNW 6.9 mph - N/A   Clear
12:55 AM 30.2 °F 23.4 °F 24.8 °F 80% 30.20 in 10.0 mi NNW 6.9 mph - N/A   Clear
1:15 AM 30.2 °F 23.4 °F 24.8 °F 80% 30.20 in 10.0 mi NNW 6.9 mph - N/A   Clear
1:35 AM 30.2 °F 24.3 °F 23.0 °F 75% 30.21 in 10.0 mi NNW 5.8 mph - N/A   Clear
1:55 AM 30.2 °F 23.4 °F 24.8 °F 80% 30.20 in 10.0 mi North 6.9 mph - N/A   Clear
2:15 AM 30.2 °F 23.4 °F 23.0 °F 75% 30.21 in 10.0 mi NNW 6.9 mph - N/A   Clear
2:35 AM 30.2 °F 24.3 °F 23.0 °F 75% 30.21 in 10.0 mi North 5.8 mph - N/A   Clear
2:55 AM 32.0 °F 25.6 °F 24.8 °F 75% 30.21 in 10.0 mi North 6.9 mph - N/A   Clear
3:15 AM 30.2 °F 24.3 °F 23.0 °F 75% 30.21 in 10.0 mi NNW 5.8 mph - N/A   Clear
3:35 AM 30.2 °F 24.3 °F 23.0 °F 75% 30.20 in 10.0 mi NW 5.8 mph - N/A   Clear
3:55 AM 30.2 °F 24.3 °F 23.0 °F 75% 30.21 in 10.0 mi NW 5.8 mph - N/A   Clear
4:15 AM 28.4 °F 21.2 °F 23.0 °F 80% 30.20 in 10.0 mi NNW 6.9 mph - N/A   Clear
4:35 AM 28.4 °F 22.2 °F 24.8 °F 86% 30.20 in 10.0 mi NNW 5.8 mph - N/A   Clear
4:55 AM 30.2 °F 24.3 °F 24.8 °F 80% 30.20 in 10.0 mi North 5.8 mph - N/A   Clear
5:15 AM 30.2 °F 24.3 °F 24.8 °F 80% 30.21 in 10.0 mi NNW 5.8 mph - N/A   Clear
5:35 AM 28.4 °F 22.2 °F 23.0 °F 80% 30.21 in 10.0 mi NW 5.8 mph - N/A   Clear
5:55 AM 28.4 °F 22.2 °F 24.8 °F 86% 30.21 in 10.0 mi NW 5.8 mph - N/A   Clear
6:15 AM 28.4 °F 21.2 °F 23.0 °F 80% 30.22 in 10.0 mi NW 6.9 mph - N/A   Clear
6:35 AM 28.4 °F 20.4 °F 23.0 °F 80% 30.21 in 10.0 mi NNW 8.1 mph - N/A   Clear
6:55 AM 28.4 °F 21.2 °F 24.8 °F 86% 30.21 in 10.0 mi NNW 6.9 mph - N/A   Clear
7:15 AM 28.4 °F 21.2 °F 24.8 °F 86% 30.22 in 10.0 mi NW 6.9 mph - N/A   Clear
7:35 AM 30.2 °F 23.4 °F 24.8 °F 80% 30.22 in 10.0 mi NW 6.9 mph - N/A   Clear
7:55 AM 30.2 °F 23.4 °F 26.6 °F 86% 30.22 in 10.0 mi NNW 6.9 mph - N/A   Clear
8:15 AM 30.2 °F 22.6 °F 26.6 °F 86% 30.23 in 10.0 mi NNW 8.1 mph - N/A   Scattered Clouds
8:35 AM 32.0 °F 25.6 °F 26.6 °F 80% 30.24 in 10.0 mi NNW 6.9 mph - N/A   Scattered Clouds
8:55 AM 32.0 °F 24.8 °F 26.6 °F 80% 30.24 in 10.0 mi NNW 8.1 mph - N/A   Clear
9:15 AM 33.8 °F 27.0 °F 26.6 °F 75% 30.24 in 10.0 mi NNW 8.1 mph - N/A   Mostly Cloudy
9:35 AM 33.8 °F 27.0 °F 26.6 °F 75% 30.25 in 10.0 mi NW 8.1 mph - N/A   Overcast
9:55 AM 33.8 °F 27.0 °F 26.6 °F 75% 30.25 in 10.0 mi WNW 8.1 mph - N/A   Overcast
10:15 AM 35.6 °F 28.0 °F 28.4 °F 75% 30.25 in 10.0 mi NW 10.4 mph - N/A   Overcast
10:35 AM 35.6 °F 28.0 °F 28.4 °F 75% 30.25 in 10.0 mi NNW 10.4 mph - N/A   Mostly Cloudy
10:55 AM 37.4 °F 31.4 °F 28.4 °F 70% 30.25 in 10.0 mi NNW 8.1 mph - N/A   Mostly Cloudy
11:15 AM 37.4 °F 30.8 °F 28.4 °F 70% 30.25 in 10.0 mi North 9.2 mph - N/A   Overcast
11:35 AM 37.4 °F 31.4 °F 26.6 °F 65% 30.25 in 10.0 mi North 8.1 mph - N/A   Mostly Cloudy
11:55 AM 37.4 °F 31.4 °F 28.4 °F 70% 30.24 in 10.0 mi NNW 8.1 mph - N/A   Scattered Clouds
12:15 PM 39.2 °F 34.2 °F 28.4 °F 65% 30.24 in 10.0 mi NNW 6.9 mph - N/A   Scattered Clouds
12:35 PM 39.2 °F 34.2 °F 28.4 °F 65% 30.23 in 10.0 mi North 6.9 mph - N/A   Scattered Clouds
12:55 PM 39.2 °F 34.2 °F 28.4 °F 65% 30.24 in 10.0 mi North 6.9 mph - N/A   Partly Cloudy
1:15 PM 39.2 °F 34.2 °F 28.4 °F 65% 30.24 in 10.0 mi NNW 6.9 mph - N/A   Mostly Cloudy
1:35 PM 39.2 °F 35.0 °F 28.4 °F 65% 30.23 in 10.0 mi NW 5.8 mph - N/A   Overcast
1:55 PM 39.2 °F 32.5 °F 28.4 °F 65% 30.23 in 10.0 mi NNW 10.4 mph - N/A   Overcast
2:15 PM 39.2 °F 33.6 °F 26.6 °F 61% 30.23 in 10.0 mi NW 8.1 mph - N/A   Overcast
2:35 PM 39.2 °F 34.2 °F 26.6 °F 61% 30.22 in 10.0 mi NW 6.9 mph - N/A   Overcast
2:55 PM 39.2 °F 34.2 °F 28.4 °F 65% 30.22 in 10.0 mi NNW 6.9 mph - N/A   Overcast
3:15 PM 39.2 °F 34.2 °F 28.4 °F 65% 30.22 in 10.0 mi North 6.9 mph - N/A   Overcast
3:35 PM 39.2 °F 33.0 °F 26.6 °F 61% 30.22 in 10.0 mi North 9.2 mph - N/A   Overcast
3:55 PM 39.2 °F 33.6 °F 26.6 °F 61% 30.22 in 10.0 mi North 8.1 mph - N/A   Overcast
4:15 PM 39.2 °F 35.9 °F 26.6 °F 61% 30.22 in 10.0 mi North 4.6 mph - N/A   Overcast
4:35 PM 39.2 °F 35.0 °F 26.6 °F 61% 30.22 in 10.0 mi North 5.8 mph - N/A   Overcast
4:55 PM 39.2 °F 34.2 °F 26.6 °F 61% 30.22 in 10.0 mi North 6.9 mph - N/A   Overcast
5:15 PM 37.4 °F 33.8 °F 26.6 °F 65% 30.22 in 10.0 mi North 4.6 mph - N/A   Overcast
5:35 PM 37.4 °F 33.8 °F 26.6 °F 65% 30.22 in 10.0 mi NNW 4.6 mph - N/A   Overcast
5:55 PM 37.4 °F 32.8 °F 24.8 °F 60% 30.22 in 10.0 mi North 5.8 mph - N/A   Overcast
6:15 PM 37.4 °F 32.8 °F 24.8 °F 60% 30.22 in 10.0 mi NNW 5.8 mph - N/A   Mostly Cloudy
6:35 PM 35.6 °F 30.7 °F 24.8 °F 65% 30.23 in 10.0 mi NNW 5.8 mph - N/A   Partly Cloudy
6:55 PM 35.6 °F 31.7 °F 24.8 °F 65% 30.23 in 10.0 mi NNW 4.6 mph - N/A   Partly Cloudy
7:15 PM 35.6 °F 31.7 °F 24.8 °F 65% 30.23 in 10.0 mi NW 4.6 mph - N/A   Mostly Cloudy
7:35 PM 35.6 °F 31.7 °F 26.6 °F 70% 30.24 in 10.0 mi WNW 4.6 mph - N/A   Mostly Cloudy
7:55 PM 35.6 °F 31.7 °F 26.6 °F 70% 30.24 in 10.0 mi NW 4.6 mph - N/A   Overcast
8:15 PM 35.6 °F 31.7 °F 26.6 °F 70% 30.24 in 10.0 mi NNW 4.6 mph - N/A   Overcast
8:35 PM 35.6 °F 29.9 °F 26.6 °F 70% 30.24 in 10.0 mi NNW 6.9 mph - N/A   Overcast
8:55 PM 35.6 °F 30.7 °F 26.6 °F 70% 30.24 in 10.0 mi NNW 5.8 mph - N/A   Overcast
9:15 PM 35.6 °F 29.9 °F 26.6 °F 70% 30.24 in 10.0 mi NW 6.9 mph - N/A   Overcast
9:35 PM 35.6 °F 30.7 °F 26.6 °F 70% 30.25 in 10.0 mi NW 5.8 mph - N/A   Overcast
9:55 PM 33.8 °F 29.6 °F 24.8 °F 70% 30.24 in 10.0 mi NNW 4.6 mph - N/A   Mostly Cloudy
10:15 PM 33.8 °F 27.7 °F 24.8 °F 70% 30.24 in 10.0 mi NNW 6.9 mph - N/A   Partly Cloudy
10:35 PM 33.8 °F 27.7 °F 24.8 °F 70% 30.23 in 10.0 mi NNW 6.9 mph - N/A   Partly Cloudy
10:55 PM 33.8 °F 28.6 °F 26.6 °F 75% 30.23 in 10.0 mi NNW 5.8 mph - N/A   Mostly Cloudy
11:15 PM 35.6 °F 30.7 °F 26.6 °F 70% 30.23 in 10.0 mi NNW 5.8 mph - N/A   Overcast
11:35 PM 35.6 °F 29.9 °F 24.8 °F 65% 30.23 in 10.0 mi WNW 6.9 mph - N/A   Overcast